CMB566 EPWA-EPPW

Flight info

Callsign CMB566
Flight time 0h 25m
Altitude 17000
Route LOLSI DCT PEVUM DCT CI2LY
Aircraft B744/H-SDE3FGHIM1M2RWXY/LB1

Departure

Time 2026-04-20 19:35
Airport Warsaw Chopin Airport (EPWA)

Arrival

Time 2026-04-20 20:00
Airport Powidz Military Air Base (EPPW)
Time Latitude Longitude Altitude Speed Heading
2026-04-20 19:08 52.15340 20.98349 344 ft 0 kts 62°
2026-04-20 19:20 52.15339 20.98346 344 ft 1 kts 62°
2026-04-20 19:20 52.15333 20.98325 344 ft 2 kts 62°
2026-04-20 19:20 52.15326 20.98303 344 ft 2 kts 62°
2026-04-20 19:21 52.15319 20.98281 344 ft 2 kts 62°
2026-04-20 19:21 52.15315 20.98270 344 ft 2 kts 61°
2026-04-20 19:21 52.15306 20.98253 344 ft 1 kts 33°
2026-04-20 19:21 52.15295 20.98244 344 ft 1 kts 13°
2026-04-20 19:22 52.15281 20.98243 344 ft 2 kts 350°
2026-04-20 19:22 52.15270 20.98248 344 ft 0 kts 331°
2026-04-20 19:22 52.15266 20.98251 344 ft 0 kts 332°
2026-04-20 19:24 52.15272 20.98246 344 ft 6 kts 332°
2026-04-20 19:24 52.15336 20.98191 344 ft 11 kts 332°
2026-04-20 19:25 52.15393 20.98143 344 ft 9 kts 333°
2026-04-20 19:25 52.15441 20.98102 344 ft 7 kts 333°
2026-04-20 19:25 52.15483 20.98067 344 ft 6 kts 331°
2026-04-20 19:25 52.15530 20.98024 343 ft 12 kts 331°
2026-04-20 19:26 52.15615 20.97950 341 ft 17 kts 332°
2026-04-20 19:26 52.15702 20.97874 340 ft 17 kts 332°
2026-04-20 19:26 52.15789 20.97799 339 ft 16 kts 332°
2026-04-20 19:26 52.15871 20.97728 339 ft 15 kts 333°
2026-04-20 19:27 52.15959 20.97651 338 ft 14 kts 332°
2026-04-20 19:27 52.16044 20.97575 337 ft 13 kts 331°
2026-04-20 19:27 52.16108 20.97517 337 ft 11 kts 331°
2026-04-20 19:27 52.16157 20.97474 338 ft 9 kts 332°
2026-04-20 19:28 52.16196 20.97442 338 ft 7 kts 332°
2026-04-20 19:28 52.16212 20.97428 339 ft 0 kts 330°
2026-04-20 19:29 52.16215 20.97425 339 ft 4 kts 330°
2026-04-20 19:29 52.16305 20.97344 340 ft 21 kts 332°
2026-04-20 19:29 52.16421 20.97246 340 ft 21 kts 333°
2026-04-20 19:30 52.16541 20.97142 340 ft 20 kts 332°
2026-04-20 19:30 52.16639 20.97056 338 ft 19 kts 332°
2026-04-20 19:30 52.16737 20.96969 337 ft 18 kts 332°
2026-04-20 19:30 52.16828 20.96890 335 ft 17 kts 332°
2026-04-20 19:31 52.16916 20.96813 334 ft 16 kts 331°
2026-04-20 19:31 52.16994 20.96745 334 ft 15 kts 332°
2026-04-20 19:31 52.17063 20.96684 335 ft 13 kts 332°
2026-04-20 19:31 52.17126 20.96631 336 ft 13 kts 332°
2026-04-20 19:32 52.17206 20.96562 337 ft 17 kts 332°
2026-04-20 19:32 52.17293 20.96488 337 ft 17 kts 332°
2026-04-20 19:32 52.17368 20.96421 338 ft 17 kts 332°
2026-04-20 19:32 52.17440 20.96357 338 ft 19 kts 331°
2026-04-20 19:33 52.17536 20.96271 338 ft 18 kts 330°
2026-04-20 19:33 52.17578 20.96136 341 ft 14 kts 256°
2026-04-20 19:33 52.17550 20.96074 342 ft 9 kts 214°
2026-04-20 19:33 52.17486 20.96020 343 ft 9 kts 207°
2026-04-20 19:34 52.17433 20.95983 344 ft 6 kts 187°
2026-04-20 19:34 52.17381 20.96005 344 ft 14 kts 151°
2026-04-20 19:34 52.17167 20.96196 343 ft 76 kts 150°
2026-04-20 19:34 52.16542 20.96748 337 ft 151 kts 153°
2026-04-20 19:35 52.14233 20.98763 1254 ft 215 kts 146°
2026-04-20 19:35 52.12941 20.99842 2718 ft 199 kts 148°
2026-04-20 19:36 52.10405 21.01370 3984 ft 211 kts 182°
2026-04-20 19:36 52.08974 21.00302 4604 ft 219 kts 216°
2026-04-20 19:36 52.07558 20.98118 5308 ft 223 kts 231°
2026-04-20 19:36 52.06968 20.95611 5794 ft 231 kts 268°
2026-04-20 19:37 52.07534 20.89769 7168 ft 235 kts 282°
2026-04-20 19:37 52.07737 20.87798 7618 ft 237 kts 282°
2026-04-20 19:37 52.08092 20.84442 8463 ft 236 kts 282°
2026-04-20 19:38 52.08445 20.81074 9229 ft 237 kts 282°
2026-04-20 19:38 52.08825 20.77399 10053 ft 239 kts 283°
2026-04-20 19:38 52.09184 20.73943 10819 ft 243 kts 283°
2026-04-20 19:38 52.09507 20.70835 11447 ft 248 kts 283°
2026-04-20 19:39 52.09860 20.67413 12021 ft 252 kts 282°
2026-04-20 19:39 52.10269 20.63412 12685 ft 255 kts 282°
2026-04-20 19:39 52.10640 20.59785 13306 ft 259 kts 282°
2026-04-20 19:39 52.11059 20.55681 13875 ft 265 kts 282°
2026-04-20 19:40 52.11413 20.52152 14228 ft 273 kts 282°
2026-04-20 19:40 52.11755 20.48765 14528 ft 284 kts 282°
2026-04-20 19:40 52.12081 20.45528 14621 ft 299 kts 282°
2026-04-20 19:40 52.12422 20.42105 14517 ft 319 kts 282°
2026-04-20 19:41 52.12789 20.38428 14271 ft 340 kts 282°
2026-04-20 19:41 52.13171 20.34577 14520 ft 344 kts 281°
2026-04-20 19:41 52.13547 20.30734 14854 ft 345 kts 281°
2026-04-20 19:41 52.13922 20.26916 15200 ft 345 kts 281°
2026-04-20 19:42 52.14295 20.23064 15522 ft 346 kts 281°
2026-04-20 19:42 52.14677 20.19152 15903 ft 356 kts 281°
2026-04-20 19:42 52.15075 20.15090 16184 ft 379 kts 281°
2026-04-20 19:42 52.15494 20.10783 16295 ft 396 kts 281°
2026-04-20 19:43 52.15931 20.06277 16270 ft 405 kts 281°
2026-04-20 19:43 52.16362 20.01807 16163 ft 395 kts 281°
2026-04-20 19:43 52.16781 19.97398 16055 ft 390 kts 281°
2026-04-20 19:43 52.17191 19.93070 15993 ft 387 kts 281°
2026-04-20 19:44 52.17596 19.88771 15970 ft 385 kts 281°
2026-04-20 19:44 52.17993 19.84495 15966 ft 384 kts 281°
2026-04-20 19:44 52.18487 19.80243 15978 ft 385 kts 284°
2026-04-20 19:44 52.18994 19.75965 15993 ft 387 kts 282°
2026-04-20 19:45 52.19484 19.71660 16001 ft 388 kts 283°
2026-04-20 19:45 52.19986 19.67319 16004 ft 388 kts 282°
2026-04-20 19:45 52.20468 19.63031 16000 ft 388 kts 282°
2026-04-20 19:45 52.20963 19.58679 15994 ft 387 kts 282°
2026-04-20 19:46 52.21439 19.54421 15993 ft 387 kts 282°
2026-04-20 19:46 52.21917 19.50127 15993 ft 386 kts 282°
2026-04-20 19:46 52.22395 19.45813 15993 ft 386 kts 282°
2026-04-20 19:46 52.22872 19.41484 15994 ft 386 kts 282°
2026-04-20 19:47 52.23344 19.37183 15995 ft 386 kts 282°
2026-04-20 19:47 52.23814 19.32902 15990 ft 387 kts 282°
2026-04-20 19:47 52.24279 19.28626 15992 ft 387 kts 282°
2026-04-20 19:47 52.24749 19.24318 15994 ft 388 kts 282°
2026-04-20 19:48 52.25218 19.19992 16001 ft 389 kts 282°
2026-04-20 19:48 52.25694 19.15615 15998 ft 389 kts 282°
2026-04-20 19:48 52.26156 19.11321 15985 ft 389 kts 282°
2026-04-20 19:48 52.26625 19.06958 15929 ft 389 kts 282°
2026-04-20 19:49 52.27082 19.02654 15827 ft 378 kts 281°
2026-04-20 19:49 52.27516 18.98582 15632 ft 358 kts 282°
2026-04-20 19:49 52.27927 18.94686 15235 ft 342 kts 282°
2026-04-20 19:49 52.28321 18.90952 14631 ft 333 kts 282°
2026-04-20 19:50 52.28709 18.87266 13914 ft 326 kts 282°
2026-04-20 19:50 52.29094 18.83621 13210 ft 330 kts 282°
2026-04-20 19:50 52.29480 18.79978 12527 ft 326 kts 282°
2026-04-20 19:50 52.29856 18.76398 11842 ft 319 kts 282°
2026-04-20 19:51 52.30224 18.72865 11144 ft 312 kts 282°
2026-04-20 19:51 52.30574 18.69458 10508 ft 304 kts 281°
2026-04-20 19:51 52.30885 18.66127 10127 ft 287 kts 275°
2026-04-20 19:51 52.30767 18.62984 9735 ft 276 kts 264°
2026-04-20 19:52 52.30563 18.59843 9312 ft 282 kts 266°
2026-04-20 19:52 52.30384 18.56637 8875 ft 284 kts 265°
2026-04-20 19:52 52.30192 18.53469 8425 ft 278 kts 265°
2026-04-20 19:52 52.30008 18.50354 7984 ft 279 kts 265°
2026-04-20 19:53 52.29819 18.47218 7578 ft 279 kts 265°
2026-04-20 19:53 52.29631 18.44110 7146 ft 275 kts 265°
2026-04-20 19:53 52.29436 18.40955 6733 ft 279 kts 265°
2026-04-20 19:53 52.29242 18.37840 6330 ft 275 kts 265°
2026-04-20 19:54 52.29050 18.34793 6048 ft 273 kts 264°
2026-04-20 19:54 52.28966 18.31700 5837 ft 266 kts 279°
2026-04-20 19:54 52.29439 18.28947 5685 ft 246 kts 291°
2026-04-20 19:54 52.29967 18.26373 5521 ft 230 kts 290°
2026-04-20 19:55 52.30434 18.23982 5397 ft 212 kts 291°
2026-04-20 19:55 52.30880 18.21730 5050 ft 207 kts 291°
2026-04-20 19:55 52.31314 18.19527 4731 ft 203 kts 291°
2026-04-20 19:55 52.31749 18.17314 4452 ft 207 kts 291°
2026-04-20 19:56 52.32041 18.15824 4275 ft 209 kts 290°
2026-04-20 19:56 52.32628 18.12810 3894 ft 209 kts 290°
2026-04-20 19:56 52.33054 18.10563 3557 ft 206 kts 289°
2026-04-20 19:56 52.33438 18.08337 3227 ft 201 kts 289°
2026-04-20 19:57 52.33856 18.06165 2789 ft 198 kts 291°
2026-04-20 19:57 52.34245 18.04143 2621 ft 177 kts 290°
2026-04-20 19:57 52.34601 18.02304 2376 ft 165 kts 292°
2026-04-20 19:57 52.34942 18.00579 2114 ft 157 kts 292°
2026-04-20 19:58 52.35265 17.98915 1892 ft 154 kts 292°
2026-04-20 19:58 52.35601 17.97199 1731 ft 158 kts 291°
2026-04-20 19:58 52.35918 17.95530 1479 ft 151 kts 291°
2026-04-20 19:58 52.36228 17.93927 1200 ft 144 kts 291°
2026-04-20 19:59 52.36522 17.92421 939 ft 137 kts 291°
2026-04-20 19:59 52.36801 17.90946 728 ft 134 kts 291°
2026-04-20 19:59 52.37082 17.89479 670 ft 141 kts 289°
2026-04-20 19:59 52.37375 17.87944 545 ft 140 kts 290°
2026-04-20 20:00 52.37660 17.86469 388 ft 130 kts 289°
2026-04-20 20:00 52.37893 17.85321 376 ft 67 kts 290°
2026-04-20 20:00 52.37968 17.84979 374 ft 14 kts 255°
2026-04-20 20:00 52.37942 17.84959 373 ft 4 kts 143°
2026-04-20 20:01 52.37931 17.85031 374 ft 7 kts 96°
2026-04-20 20:01 52.37931 17.85126 376 ft 1 kts 71°
2026-04-20 20:01 52.37905 17.85310 376 ft 36 kts 108°
2026-04-20 20:01 52.37814 17.85757 378 ft 44 kts 108°
2026-04-20 20:02 52.37714 17.86255 381 ft 48 kts 107°
2026-04-20 20:02 52.37671 17.86579 381 ft 20 kts 66°
2026-04-20 20:02 52.37800 17.86688 387 ft 22 kts 15°
2026-04-20 20:02 52.37929 17.86745 393 ft 14 kts
2026-04-20 20:03 52.37979 17.86676 394 ft 10 kts 294°
2026-04-20 20:03 52.38015 17.86524 395 ft 19 kts 288°
2026-04-20 20:03 52.38069 17.86251 394 ft 28 kts 288°
2026-04-20 20:03 52.38128 17.85950 391 ft 26 kts 288°
2026-04-20 20:04 52.38179 17.85682 389 ft 23 kts 286°
2026-04-20 20:04 52.38244 17.85331 388 ft 43 kts 288°
2026-04-20 20:04 52.38342 17.84839 382 ft 45 kts 288°
2026-04-20 20:04 52.38432 17.84359 379 ft 42 kts 287°
2026-04-20 20:05 52.38511 17.83926 378 ft 37 kts 287°
2026-04-20 20:05 52.38588 17.83542 376 ft 33 kts 289°
2026-04-20 20:05 52.38654 17.83205 375 ft 29 kts 287°
2026-04-20 20:05 52.38735 17.82987 376 ft 17 kts 328°
2026-04-20 20:06 52.38770 17.82839 375 ft 12 kts 281°
2026-04-20 20:06 52.38802 17.82757 377 ft 6 kts 338°
2026-04-20 20:06 52.38842 17.82767 378 ft 4 kts 39°
2026-04-20 20:06 52.38856 17.82806 378 ft 3 kts 93°
2026-04-20 20:07 52.38852 17.82862 378 ft 6 kts 97°
2026-04-20 20:07 52.38850 17.82889 378 ft 0 kts 101°